EN

Hourly Weather Karad

Today, 22 October, Thursday

Time Temperature Precipitation Wind Pressure Humidity
00:00 +24°C° 0 mm 1 mps 707 mmHg 89%
01:00 +24°C° 0 mm 1 mps 707 mmHg 89%
02:00 +24°C° 0 mm 1 mps 706 mmHg 89%
03:00 +24°C° 0 mm 1 mps 706 mmHg 89%
04:00 +22°C° 0 mm 0 mps 706 mmHg 89%
05:00 +22°C° 0 mm 0 mps 706 mmHg 87%
06:00 +23°C° 0 mm 0 mps 707 mmHg 84%
07:00 +24°C° 0 mm 0 mps 708 mmHg 80%
08:00 +25°C° 0 mm 0 mps 708 mmHg 76%
09:00 +26°C° 0.1 mm 0 mps 708 mmHg 72%
10:00 +28°C° 0.1 mm 0 mps 708 mmHg 68%
11:00 +29°C° 0.1 mm 0 mps 708 mmHg 63%
12:00 +29°C° 1.7 mm 0 mps 707 mmHg 65%
13:00 +31°C° 1.7 mm 1 mps 707 mmHg 66%
14:00 +30°C° 1.7 mm 1 mps 706 mmHg 67%
15:00 +30°C° 3.3 mm 1 mps 706 mmHg 73%
16:00 +29°C° 3.3 mm 2 mps 706 mmHg 78%
17:00 +28°C° 3.3 mm 2 mps 706 mmHg 84%
18:00 +27°C° 2.3 mm 2 mps 706 mmHg 85%
19:00 +26°C° 2.3 mm 2 mps 707 mmHg 87%
20:00 +26°C° 2.3 mm 2 mps 707 mmHg 88%
21:00 +26°C° 1.2 mm 2 mps 707 mmHg 88%
22:00 +25°C° 1.2 mm 2 mps 707 mmHg 88%
23:00 +25°C° 1.2 mm 1 mps 707 mmHg 89%

Tomorrow, 23 October, Friday

Time Temperature Precipitation Wind Pressure Humidity
00:00 +25°C° 0 mm 1 mps 707 mmHg 88%
01:00 +25°C° 0 mm 1 mps 706 mmHg 88%
02:00 +25°C° 0 mm 1 mps 706 mmHg 88%
03:00 +25°C° 0.1 mm 1 mps 706 mmHg 88%
04:00 +25°C° 0.1 mm 1 mps 706 mmHg 88%
05:00 +24°C° 0.1 mm 1 mps 705 mmHg 88%
06:00 +25°C° 0 mm 1 mps 706 mmHg 86%
07:00 +26°C° 0 mm 1 mps 707 mmHg 83%
08:00 +27°C° 0 mm 1 mps 708 mmHg 81%
09:00 +28°C° 0.2 mm 2 mps 708 mmHg 76%
10:00 +29°C° 0.2 mm 2 mps 708 mmHg 71%
11:00 +30°C° 0.2 mm 3 mps 708 mmHg 66%
12:00 +30°C° 0.4 mm 2 mps 707 mmHg 65%
13:00 +31°C° 0.4 mm 2 mps 707 mmHg 63%
14:00 +31°C° 0.4 mm 2 mps 706 mmHg 61%
15:00 +30°C° 0.8 mm 2 mps 706 mmHg 66%
16:00 +29°C° 0.8 mm 1 mps 706 mmHg 72%
17:00 +29°C° 0.8 mm 1 mps 706 mmHg 77%
18:00 +28°C° 0.2 mm 1 mps 707 mmHg 79%
19:00 +27°C° 0.2 mm 1 mps 707 mmHg 82%
20:00 +26°C° 0.2 mm 1 mps 708 mmHg 84%
21:00 +26°C° 0 mm 1 mps 708 mmHg 85%
22:00 +25°C° 0 mm 1 mps 707 mmHg 86%
23:00 +25°C° 0 mm 1 mps 707 mmHg 87%

Day after tomorrow, 24 October, Saturday

Time Temperature Precipitation Wind Pressure Humidity
00:00 +25°C° 0 mm 1 mps 707 mmHg 86%
01:00 +23°C° 0 mm 0 mps 707 mmHg 86%
02:00 +23°C° 0 mm 0 mps 707 mmHg 85%
03:00 +24°C° 0 mm 1 mps 707 mmHg 85%
04:00 +24°C° 0 mm 1 mps 706 mmHg 84%
05:00 +24°C° 0 mm 1 mps 706 mmHg 83%
06:00 +25°C° 0 mm 2 mps 707 mmHg 81%
07:00 +26°C° 0 mm 2 mps 708 mmHg 78%
08:00 +27°C° 0 mm 2 mps 709 mmHg 76%
09:00 +28°C° 0.3 mm 3 mps 709 mmHg 72%
10:00 +29°C° 0.3 mm 3 mps 709 mmHg 69%
11:00 +30°C° 0.3 mm 4 mps 708 mmHg 65%
12:00 +30°C° 0.5 mm 3 mps 708 mmHg 63%
13:00 +30°C° 0.5 mm 3 mps 708 mmHg 62%
14:00 +31°C° 0.5 mm 3 mps 707 mmHg 60%
15:00 +30°C° 0.9 mm 2 mps 707 mmHg 65%
16:00 +29°C° 0.9 mm 2 mps 707 mmHg 70%
17:00 +28°C° 0.9 mm 1 mps 707 mmHg 76%
18:00 +28°C° 0.8 mm 1 mps 708 mmHg 77%
19:00 +27°C° 0.8 mm 1 mps 708 mmHg 78%
20:00 +26°C° 0.8 mm 1 mps 709 mmHg 79%
21:00 +26°C° 0.2 mm 1 mps 709 mmHg 79%
22:00 +24°C° 0.2 mm 0 mps 709 mmHg 79%
23:00 +24°C° 0.2 mm 0 mps 709 mmHg 79%

, 25 October, Sunday

Time Temperature Precipitation Wind Pressure Humidity
00:00 +26°C° 0 mm 1 mps 709 mmHg 80%
01:00 +25°C° 0 mm 1 mps 708 mmHg 81%
02:00 +25°C° 0 mm 1 mps 708 mmHg 82%
03:00 +25°C° 0 mm 1 mps 708 mmHg 82%
04:00 +24°C° 0 mm 1 mps 708 mmHg 82%
05:00 +24°C° 0 mm 1 mps 708 mmHg 83%
06:00 +25°C° 0 mm 1 mps 709 mmHg 82%
07:00 +25°C° 0 mm 1 mps 709 mmHg 82%
08:00 +25°C° 0 mm 1 mps 710 mmHg 82%
09:00 +26°C° 0 mm 1 mps 710 mmHg 79%
10:00 +26°C° 0 mm 2 mps 710 mmHg 76%
11:00 +27°C° 0 mm 2 mps 710 mmHg 73%
12:00 +28°C° 0 mm 2 mps 709 mmHg 70%
13:00 +28°C° 0 mm 1 mps 709 mmHg 66%
14:00 +29°C° 0 mm 1 mps 708 mmHg 63%
15:00 +28°C° 0.2 mm 1 mps 708 mmHg 66%
16:00 +28°C° 0.2 mm 1 mps 708 mmHg 70%
17:00 +28°C° 0.2 mm 1 mps 708 mmHg 73%
18:00 +27°C° 0.3 mm 1 mps 709 mmHg 73%
19:00 +26°C° 0.3 mm 1 mps 709 mmHg 74%
20:00 +26°C° 0.3 mm 1 mps 709 mmHg 75%
21:00 +25°C° 0 mm 1 mps 710 mmHg 75%
22:00 +25°C° 0 mm 1 mps 710 mmHg 75%
23:00 +25°C° 0 mm 2 mps 710 mmHg 75%

25 October, Sunday

Time Temperature Precipitation Wind Pressure Humidity
00:00 +26°C° 0 mm 1 mps 709 mmHg 80%
01:00 +25°C° 0 mm 1 mps 708 mmHg 81%
02:00 +25°C° 0 mm 1 mps 708 mmHg 82%
03:00 +25°C° 0 mm 1 mps 708 mmHg 82%
04:00 +24°C° 0 mm 1 mps 708 mmHg 82%
05:00 +24°C° 0 mm 1 mps 708 mmHg 83%
06:00 +25°C° 0 mm 1 mps 709 mmHg 82%
07:00 +25°C° 0 mm 1 mps 709 mmHg 82%
08:00 +25°C° 0 mm 1 mps 710 mmHg 82%
09:00 +26°C° 0 mm 1 mps 710 mmHg 79%
10:00 +26°C° 0 mm 2 mps 710 mmHg 76%
11:00 +27°C° 0 mm 2 mps 710 mmHg 73%
12:00 +28°C° 0 mm 2 mps 709 mmHg 70%
13:00 +28°C° 0 mm 1 mps 709 mmHg 66%
14:00 +29°C° 0 mm 1 mps 708 mmHg 63%
15:00 +28°C° 0.2 mm 1 mps 708 mmHg 66%
16:00 +28°C° 0.2 mm 1 mps 708 mmHg 70%
17:00 +28°C° 0.2 mm 1 mps 708 mmHg 73%
18:00 +27°C° 0.3 mm 1 mps 709 mmHg 73%
19:00 +26°C° 0.3 mm 1 mps 709 mmHg 74%
20:00 +26°C° 0.3 mm 1 mps 709 mmHg 75%
21:00 +25°C° 0 mm 1 mps 710 mmHg 75%
22:00 +25°C° 0 mm 1 mps 710 mmHg 75%
23:00 +25°C° 0 mm 2 mps 710 mmHg 75%

26 October, Monday

Time Temperature Precipitation Wind Pressure Humidity
00:00 +24°C° 0 mm 2 mps 709 mmHg 76%
01:00 +24°C° 0 mm 2 mps 709 mmHg 76%
02:00 +24°C° 0 mm 2 mps 708 mmHg 77%
03:00 +23°C° 0 mm 1 mps 709 mmHg 77%
04:00 +23°C° 0 mm 1 mps 709 mmHg 78%
05:00 +23°C° 0 mm 1 mps 709 mmHg 78%
06:00 +24°C° 0 mm 1 mps 709 mmHg 75%
07:00 +25°C° 0 mm 2 mps 710 mmHg 73%
08:00 +25°C° 0 mm 2 mps 711 mmHg 70%
09:00 +27°C° 0 mm 3 mps 711 mmHg 65%
10:00 +28°C° 0 mm 4 mps 711 mmHg 59%
11:00 +29°C° 0 mm 5 mps 711 mmHg 54%
12:00 +30°C° 0 mm 5 mps 710 mmHg 52%
13:00 +30°C° 0 mm 5 mps 710 mmHg 51%
14:00 +30°C° 0 mm 5 mps 709 mmHg 50%
15:00 +30°C° 0 mm 4 mps 709 mmHg 54%
16:00 +29°C° 0 mm 3 mps 709 mmHg 58%
17:00 +28°C° 0 mm 2 mps 709 mmHg 62%
18:00 +27°C° 0 mm 2 mps 709 mmHg 62%
19:00 +26°C° 0 mm 2 mps 709 mmHg 62%
20:00 +25°C° 0 mm 2 mps 710 mmHg 62%
21:00 +24°C° 0 mm 2 mps 710 mmHg 64%
22:00 +24°C° 0 mm 2 mps 710 mmHg 66%
23:00 +24°C° 0 mm 2 mps 710 mmHg 68%

27 October, Tuesday

Time Temperature Precipitation Wind Pressure Humidity
00:00 +23°C° 0 mm 2 mps 709 mmHg 71%
01:00 +23°C° 0 mm 2 mps 709 mmHg 73%
02:00 +22°C° 0 mm 1 mps 708 mmHg 76%
03:00 +22°C° 0 mm 1 mps 708 mmHg 77%
04:00 +22°C° 0 mm 1 mps 708 mmHg 78%
05:00 +22°C° 0 mm 1 mps 708 mmHg 79%
06:00 +23°C° 0 mm 2 mps 709 mmHg 75%
07:00 +24°C° 0 mm 2 mps 710 mmHg 71%
08:00 +25°C° 0 mm 3 mps 710 mmHg 67%
09:00 +27°C° 0 mm 4 mps 710 mmHg 60%
10:00 +28°C° 0 mm 5 mps 710 mmHg 53%
11:00 +30°C° 0 mm 6 mps 711 mmHg 46%
12:00 +30°C° 0 mm 5 mps 710 mmHg 45%
13:00 +30°C° 0 mm 5 mps 709 mmHg 44%
14:00 +30°C° 0 mm 5 mps 709 mmHg 44%
15:00 +29°C° 0 mm 4 mps 709 mmHg 48%
16:00 +29°C° 0 mm 3 mps 709 mmHg 52%
17:00 +28°C° 0 mm 2 mps 709 mmHg 56%
18:00 +27°C° 0 mm 2 mps 709 mmHg 56%
19:00 +25°C° 0 mm 2 mps 709 mmHg 56%
20:00 +24°C° 0 mm 2 mps 710 mmHg 56%
21:00 +24°C° 0 mm 2 mps 710 mmHg 58%
22:00 +23°C° 0 mm 2 mps 710 mmHg 60%
23:00 +23°C° 0 mm 2 mps 710 mmHg 62%
Show more

We Need Your Consent

Meteoprog and our Service Providers may store and access personal data such as cookies, device identifiers or other similar technologies on your device and process such data to personalise content and ads, as well as provide social media features and to analyse the traffic.

  • Store and/or access information on your device

    Cookies, device identifiers or other information can be stored or accessed on your device for the purposes indicated above.

  • Personalised ads and content, ad and content measurement, audience insights, and products development

    Ads and content can be personalised based on a profile. More data can be added to better personalise ads and content. Ad and content performance can be measured. Insights about the audience who saw the ads and content can be derived. Such data can be used to develop or improve user’s experience, systems and software.

By clicking ‘I Agree’ you will allow the use of indicated cookies, device identifiers, web beacons or other similar technologies. Your settings can be changed in the browser on your device.

For certain purposes, legitimate interests may be relied on, rather than consent. You can read more about this in our Privacy and Cookie Policy.